Location: Keppel Henge
(44.7900°N, 80.9447°W)
Time: 21:56:52
(UTC-05:00)

Vanguard 1 Rocket - Pass Details

Date: 26 October 2017
Orbit: 655 x 4222 km, 34.3° (Epoch: 17 November)

Event Time Altitude Azimuth Distance (km) Brightness Sun altitude
Rises 09:25:54 0° 259° (WSW) 4,720 10.6 13.8°
Reaches altitude 10° 09:30:02 10° 250° (WSW) 3,211 9.9 14.4°
Maximum altitude 09:36:06 29° 192° (SSW) 1,540 9.0 15.3°
Drops below altitude 10° 09:40:20 10° 131° (SE) 2,195 12.2 15.9°
Sets 09:42:38 0° 119° (ESE) 3,004 11.8 16.2°
